N0DBM Weather Reports


Display with metric or nautical units.
time (UTC)temp
F
wind
direction
speed
MPH
gust
MPH
rain 1hr
in
rain 24hr
in
rain mn
in
humidity
%
barometer
mb
20260906153012 82 190 1.0 4.0 0.00 0.00 0.00 74 1017.4
20260906152503 82 190 1.0 4.0 0.00 0.00 0.00 73 1017.4
20260906152002 82 190 1.0 4.0 0.00 0.00 0.00 74 1017.4
20260906151506 82 190 0.0 4.0 0.00 0.00 0.00 74 1017.5
20260906151002 81 190 1.0 4.0 0.00 0.00 0.00 74 1017.5
20260906150508 82 190 1.0 4.0 0.00 0.00 0.00 74 1017.4
20260906150008 81 190 1.0 3.0 0.00 0.00 0.00 73 1017.4
20260906145506 81 190 1.0 3.0 0.00 0.00 0.00 73 1017.3
20260906145006 81 190 1.0 2.0 0.00 0.00 0.00 73 1017.3
20260906144519 80 190 1.0 3.0 0.00 0.00 0.00 74 1017.3
20260906144009 80 190 1.0 3.0 0.00 0.00 0.00 74 1017.5
20260906143508 80 190 1.0 3.0 0.00 0.00 0.00 75 1017.4
20260906143021 80 190 0.0 2.0 0.00 0.00 0.00 77 1017.4
20260906142511 79 190 1.0 3.0 0.00 0.00 0.00 78 1017.3
20260906142012 78 190 1.0 4.0 0.00 0.00 0.00 79 1017.3
20260906141509 78 190 1.0 4.0 0.00 0.00 0.00 80 1017.3
20260906141004 78 190 0.0 3.0 0.00 0.00 0.00 81 1017.3
20260906140502 77 190 1.0 3.0 0.00 0.00 0.00 82 1017.3
20260906140012 77 190 1.0 3.0 0.00 0.00 0.00 82 1017.3
20260906135503 77 190 1.0 3.0 0.00 0.00 0.00 83 1017.3
20260906135006 77 190 1.0 3.0 0.00 0.00 0.00 83 1017.4
20260906134514 76 190 1.0 3.0 0.00 0.00 0.00 84 1017.3
20260906134008 76 190 1.0 3.0 0.00 0.00 0.00 85 1017.3
20260906133507 75 190 1.0 2.0 0.00 0.00 0.00 86 1017.2
20260906133017 75 190 0.0 3.0 0.00 0.00 0.00 87 1017.1
20260906132512 74 190 1.0 4.0 0.00 0.00 0.00 87 1017.1
20260906132011 74 190 2.0 4.0 0.00 0.00 0.00 87 1017.0
20260906131525 74 190 1.0 2.0 0.00 0.00 0.00 88 1017.0
20260906131011 74 190 0.0 2.0 0.00 0.00 0.00 88 1016.8
20260906130514 74 190 0.0 2.0 0.00 0.00 0.00 89 1016.7
20260906130006 74 190 0.0 2.0 0.00 0.00 0.00 89 1016.7
20260906125504 74 190 0.0 2.0 0.00 0.00 0.00 89 1016.8
20260906125003 74 190 0.0 3.0 0.00 0.00 0.00 90 1016.8
20260906124511 73 190 0.0 3.0 0.00 0.00 0.00 90 1016.8
20260906124006 73 190 0.0 3.0 0.00 0.00 0.00 90 1016.8
20260906123507 73 190 1.0 3.0 0.00 0.00 0.00 90 1016.8
20260906123016 73 190 0.0 2.0 0.00 0.00 0.00 90 1016.6
20260906122507 73 190 0.0 0.0 0.00 0.00 0.00 90 1016.5
20260906122009 73 190 0.0 1.0 0.00 0.00 0.00 90 1016.6
20260906121522 73 190 0.0 1.0 0.00 0.00 0.00 90 1016.6
20260906121014 73 190 0.0 1.0 0.00 0.00 0.00 90 1016.5
20260906120510 73 190 0.0 3.0 0.00 0.00 0.00 90 1016.4
20260906120026 73 190 0.0 3.0 0.00 0.00 0.00 90 1016.2
20260906115514 73 190 0.0 2.0 0.00 0.00 0.00 90 1016.3
20260906115003 74 190 0.0 1.0 0.00 0.00 0.00 90 1016.4
20260906114508 74 190 0.0 1.0 0.00 0.00 0.00 90 1016.4
20260906114010 74 190 0.0 1.0 0.00 0.00 0.00 90 1016.2
20260906113505 74 190 0.0 1.0 0.00 0.00 0.00 90 1016.3
20260906113012 74 190 0.0 1.0 0.00 0.00 0.00 90 1016.3
20260906112507 74 190 0.0 1.0 0.00 0.00 0.00 90 1016.3
20260906112007 74 190 0.0 2.0 0.00 0.00 0.00 90 1016.3
20260906111516 74 190 0.0 2.0 0.00 0.00 0.00 90 1016.3
20260906111008 74 190 0.0 2.0 0.00 0.00 0.00 89 1016.2
20260906110508 74 190 0.0 0.0 0.00 0.00 0.00 89 1016.2
20260906110023 75 190 0.0 0.0 0.00 0.00 0.00 89 1016.1
20260906105513 75 190 0.0 0.0 0.00 0.00 0.00 89 1016.1
20260906105015 75 190 0.0 1.0 0.00 0.00 0.00 90 1016.0
20260906104530 75 190 0.0 3.0 0.00 0.00 0.00 90 1016.0
20260906104013 75 190 0.0 3.0 0.00 0.00 0.00 89 1016.0
20260906103503 75 190 0.0 0.0 0.00 0.00 0.00 89 1015.9
20260906103008 75 190 0.0 1.0 0.00 0.00 0.00 89 1015.8
20260906102503 75 190 0.0 1.0 0.00 0.00 0.00 89 1015.9
20260906102006 75 190 0.0 0.0 0.00 0.00 0.00 90 1015.8
20260906101514 75 190 0.0 0.0 0.00 0.00 0.00 90 1015.8
20260906101006 75 190 0.0 1.0 0.00 0.00 0.00 89 1015.8
20260906100508 75 190 0.0 1.0 0.00 0.00 0.00 89 1015.7
20260906100019 75 190 0.0 2.0 0.00 0.00 0.00 89 1015.6
20260906095509 75 190 0.0 2.0 0.00 0.00 0.00 89 1015.7
20260906095010 75 190 0.0 3.0 0.00 0.00 0.00 89 1015.7
20260906094527 75 190 0.0 3.0 0.00 0.00 0.00 89 1015.7
20260906094012 76 190 0.0 3.0 0.00 0.00 0.00 89 1015.6
20260906093514 76 190 0.0 2.0 0.00 0.00 0.00 89 1015.6
20260906093038 76 190 0.0 2.0 0.00 0.00 0.00 89 1015.5
20260906092519 76 190 1.0 2.0 0.00 0.00 0.00 89 1015.4
20260906092003 76 190 0.0 3.0 0.00 0.00 0.00 90 1015.3
20260906091507 76 190 0.0 3.0 0.00 0.00 0.00 89 1015.3
20260906091008 76 190 0.0 3.0 0.00 0.00 0.00 89 1015.2
20260906090510 76 190 0.0 3.0 0.00 0.00 0.00 90 1015.2
20260906090016 76 190 1.0 3.0 0.00 0.00 0.00 90 1015.1
20260906085509 76 190 0.0 3.0 0.00 0.00 0.00 90 1015.2
20260906085011 76 190 0.0 3.0 0.00 0.00 0.00 90 1015.2
20260906084521 76 190 1.0 3.0 0.00 0.00 0.00 90 1015.1
20260906084012 77 190 1.0 3.0 0.00 0.00 0.00 90 1015.1
20260906083513 77 190 0.0 3.0 0.00 0.00 0.00 90 1015.1
20260906083027 77 190 0.0 3.0 0.00 0.00 0.00 89 1015.1
20260906082517 77 190 1.0 2.0 0.00 0.00 0.00 89 1015.0
20260906082016 77 190 0.0 2.0 0.00 0.00 0.00 89 1015.0
20260906081533 77 190 0.0 3.0 0.00 0.00 0.00 89 1014.9
20260906081014 77 190 1.0 4.0 0.00 0.00 0.00 89 1014.9
20260906080504 77 190 1.0 4.0 0.00 0.00 0.00 89 1015.0
20260906080014 77 190 1.0 3.0 0.00 0.00 0.00 89 1015.0
20260906075506 77 190 1.0 4.0 0.00 0.00 0.00 89 1015.1
20260906075009 77 190 1.0 4.0 0.00 0.00 0.00 89 1015.0
20260906074518 77 190 1.0 4.0 0.00 0.00 0.00 88 1015.1
20260906074008 77 190 1.0 2.0 0.00 0.00 0.00 88 1015.0
20260906073508 77 190 0.0 3.0 0.00 0.00 0.00 88 1015.1
20260906073027 77 190 1.0 3.0 0.00 0.00 0.00 88 1015.1
20260906072510 77 190 0.0 3.0 0.00 0.00 0.00 87 1015.1
20260906072012 77 190 1.0 3.0 0.00 0.00 0.00 87 1015.1
20260906071528 77 190 0.0 2.0 0.00 0.00 0.00 87 1015.1
20260906071014 78 190 0.0 2.0 0.00 0.00 0.00 87 1015.1
20260906070517 78 190 0.0 2.0 0.00 0.00 0.00 86 1015.2
20260906070033 78 190 0.0 1.0 0.00 0.00 0.00 86 1015.1
20260906065514 78 190 0.0 0.0 0.00 0.00 0.00 86 1015.1
20260906065006 78 190 0.0 0.0 0.00 0.00 0.00 85 1015.1
20260906064517 78 190 0.0 0.0 0.00 0.00 0.00 85 1015.2
20260906064007 78 190 0.0 0.0 0.00 0.00 0.00 85 1015.1
20260906063510 78 190 0.0 0.0 0.00 0.00 0.00 85 1015.1
20260906063020 78 190 0.0 0.0 0.00 0.00 0.00 84 1015.1
20260906062511 79 190 0.0 0.0 0.00 0.00 0.00 84 1015.1
20260906062011 79 190 0.0 0.0 0.00 0.00 0.00 84 1015.2
20260906061526 79 190 0.0 0.0 0.00 0.00 0.00 84 1015.2
20260906061014 79 190 0.0 0.0 0.00 0.00 0.00 83 1015.2
20260906060519 79 190 0.0 0.0 0.00 0.00 0.00 83 1015.2
20260906060034 79 190 0.0 0.0 0.00 0.00 0.00 83 1015.3
20260906055515 79 190 0.0 0.0 0.00 0.00 0.00 83 1015.3
20260906055015 79 190 0.0 0.0 0.00 0.00 0.00 82 1015.2
20260906054533 79 190 0.0 0.0 0.00 0.00 0.00 82 1015.2
20260906054016 80 190 0.0 0.0 0.00 0.00 0.00 82 1015.3
20260906053506 80 190 0.0 0.0 0.00 0.00 0.00 82 1015.3
20260906053021 80 190 0.0 0.0 0.00 0.00 0.00 82 1015.2
20260906052508 80 190 0.0 0.0 0.00 0.00 0.00 81 1015.1
20260906052011 80 190 0.0 0.0 0.00 0.00 0.00 81 1015.1
20260906051520 80 190 0.0 0.0 0.00 0.00 0.00 81 1015.1
20260906051010 80 190 0.0 0.0 0.00 0.00 0.00 81 1015.1
20260906050517 80 190 0.0 0.0 0.00 0.00 0.00 81 1015.0
20260906050032 80 190 0.0 0.0 0.00 0.00 0.00 80 1015.1
20260906045515 80 190 0.0 0.0 0.00 0.00 0.00 80 1015.0
20260906045014 80 190 0.0 0.0 0.00 0.00 0.00 80 1014.9
20260906044533 81 190 0.0 0.0 0.00 0.00 0.00 79 1015.0
20260906044018 81 190 0.0 0.0 0.00 0.00 0.00 79 1015.0
20260906043517 81 190 0.0 0.0 0.00 0.00 0.00 79 1015.0
20260906043033 81 190 0.0 0.0 0.00 0.00 0.00 79 1014.9
20260906042513 81 190 0.0 0.0 0.00 0.00 0.00 78 1014.9
20260906042006 81 190 0.0 0.0 0.00 0.00 0.00 78 1014.9
20260906041523 81 190 0.0 0.0 0.00 0.00 0.00 78 1014.9
20260906041010 81 190 0.0 0.0 0.00 0.00 0.00 77 1014.9
20260906040511 82 190 0.0 0.0 0.00 0.00 0.00 77 1014.9
20260906040024 82 190 0.0 0.0 0.00 0.00 0.00 77 1014.7
20260906035511 82 190 0.0 0.0 0.00 0.00 0.00 76 1014.7
20260906035015 82 190 0.0 0.0 0.00 0.00 0.00 76 1014.6
20260906034531 82 190 0.0 0.0 0.00 0.00 0.00 76 1014.6
20260906034004 82 190 0.0 0.0 0.00 0.00 0.00 76 1014.5
20260906033504 82 190 0.0 0.0 0.00 0.00 0.00 75 1014.4
20260906033016 82 190 0.0 0.0 0.00 0.00 0.00 75 1014.3
20260906032505 82 190 0.0 0.0 0.00 0.00 0.00 75 1014.3
20260906032004 83 190 0.0 0.0 0.00 0.00 0.00 74 1014.4
20260906031516 83 190 0.0 0.0 0.00 0.00 0.00 74 1014.3
20260906031008 83 190 0.0 0.0 0.00 0.00 0.00 74 1014.2
20260906030508 83 190 0.0 0.0 0.00 0.00 0.00 73 1014.1
20260906030023 83 190 0.0 0.0 0.00 0.00 0.00 73 1014.0
20260906025511 83 190 0.0 0.0 0.00 0.00 0.00 73 1014.1
20260906025003 83 190 0.0 0.0 0.00 0.00 0.00 72 1014.1
20260906024505 84 190 0.0 0.0 0.00 0.00 0.00 72 1014.0
20260906024007 84 190 0.0 0.0 0.00 0.00 0.00 71 1013.9
20260906023503 84 190 0.0 0.0 0.00 0.00 0.00 71 1013.8
20260906023007 84 190 0.0 0.0 0.00 0.00 0.00 70 1013.8
20260906022503 85 190 0.0 0.0 0.00 0.00 0.00 70 1013.9
20260906022006 85 190 0.0 0.0 0.00 0.00 0.00 69 1013.8
20260906021517 85 190 0.0 0.0 0.00 0.00 0.00 69 1013.7
20260906021007 85 190 0.0 0.0 0.00 0.00 0.00 68 1013.8
20260906020510 85 190 0.0 0.0 0.00 0.00 0.00 67 1013.8
20260906020020 85 190 0.0 1.0 0.00 0.00 0.00 66 1013.6
20260906015510 86 190 0.0 2.0 0.00 0.00 0.00 66 1013.6
20260906015009 86 190 1.0 3.0 0.00 0.00 0.00 65 1013.5
20260906014532 86 190 0.0 3.0 0.00 0.00 0.00 64 1013.5
20260906014011 86 190 1.0 3.0 0.00 0.00 0.00 64 1013.3
20260906013504 86 190 0.0 0.0 0.00 0.00 0.00 63 1013.3
20260906013005 87 190 0.0 0.0 0.00 0.00 0.00 63 1013.2
20260906012503 87 190 0.0 0.0 0.00 0.00 0.00 62 1013.2
20260906012005 87 190 0.0 0.0 0.00 0.00 0.00 62 1013.0
20260906011510 87 190 0.0 0.0 0.00 0.00 0.00 61 1013.1
20260906011006 88 190 0.0 0.0 0.00 0.00 0.00 60 1013.0
20260906010507 88 190 0.0 0.0 0.00 0.00 0.00 60 1012.8
20260906010014 88 190 0.0 0.0 0.00 0.00 0.00 59 1012.9
20260906005508 88 190 0.0 0.0 0.00 0.00 0.00 59 1012.9
20260906005012 89 190 0.0 0.0 0.00 0.00 0.00 58 1013.0
20260906004519 89 190 0.0 0.0 0.00 0.00 0.00 58 1012.9
20260906004012 89 190 0.0 0.0 0.00 0.00 0.00 57 1013.0
20260906003511 89 190 0.0 0.0 0.00 0.00 0.00 57 1012.9
20260906003028 90 190 0.0 2.0 0.00 0.00 0.00 56 1012.8
20260906002504 90 190 0.0 2.0 0.00 0.00 0.00 56 1012.8
20260906002004 90 190 0.0 1.0 0.00 0.00 0.00 55 1012.9
20260906001508 91 190 0.0 1.0 0.00 0.00 0.00 55 1012.9
20260906001003 91 190 0.0 0.0 0.00 0.00 0.00 54 1012.9
20260906000503 92 190 0.0 2.0 0.00 0.00 0.00 53 1012.8
20260906000010 92 190 0.0 2.0 0.00 0.00 0.00 52 1012.8
20260905235508 92 190 1.0 4.0 0.00 0.00 0.00 52 1012.8
20260905235008 93 190 1.0 7.0 0.00 0.00 0.00 51 1012.8
20260905234514 93 190 2.0 7.0 0.00 0.00 0.00 50 1012.9
20260905234011 94 190 4.0 5.0 0.00 0.00 0.00 49 1012.8
20260905233512 95 190 0.0 2.0 0.00 0.00 0.00 49 1012.7
20260905233026 95 190 0.0 3.0 0.00 0.00 0.00 47 1012.8
20260905232512 95 190 1.0 3.0 0.00 0.00 0.00 47 1012.7
20260905232014 95 190 0.0 3.0 0.00 0.00 0.00 48 1012.6
20260905231530 95 190 0.0 3.0 0.00 0.00 0.00 47 1012.5
20260905231003 95 190 1.0 3.0 0.00 0.00 0.00 46 1012.5
20260905230502 96 190 0.0 4.0 0.00 0.00 0.00 46 1012.5
20260905230008 96 190 1.0 4.0 0.00 0.00 0.00 46 1012.5
20260905225504 96 190 1.0 5.0 0.00 0.00 0.00 46 1012.4
20260905225005 96 190 1.0 5.0 0.00 0.00 0.00 46 1012.5
20260905224518 96 190 1.0 4.0 0.00 0.00 0.00 45 1012.5
20260905224006 96 190 1.0 4.0 0.00 0.00 0.00 45 1012.4
20260905223509 97 190 0.0 5.0 0.00 0.00 0.00 45 1012.4
20260905223018 97 190 2.0 5.0 0.00 0.00 0.00 44 1012.4
20260905222510 97 190 2.0 4.0 0.00 0.00 0.00 45 1012.3
20260905222009 97 190 3.0 4.0 0.00 0.00 0.00 44 1012.4
20260905221533 97 190 2.0 6.0 0.00 0.00 0.00 44 1012.5
20260905221012 97 190 3.0 6.0 0.00 0.00 0.00 44 1012.4
20260905220515 97 190 3.0 6.0 0.00 0.00 0.00 43 1012.4
20260905220030 97 190 2.0 5.0 0.00 0.00 0.00 43 1012.4
20260905215516 97 190 2.0 7.0 0.00 0.00 0.00 44 1012.4
20260905215003 97 190 3.0 7.0 0.00 0.00 0.00 44 1012.4
20260905214511 97 190 2.0 6.0 0.00 0.00 0.00 42 1012.5
20260905214006 97 190 3.0 8.0 0.00 0.00 0.00 44 1012.4
20260905213508 97 190 4.0 8.0 0.00 0.00 0.00 44 1012.5
20260905213015 97 190 3.0 6.0 0.00 0.00 0.00 43 1012.7
20260905212506 98 190 2.0 6.0 0.00 0.00 0.00 44 1012.7
20260905212010 98 190 4.0 5.0 0.00 0.00 0.00 42 1012.8
20260905211521 98 190 2.0 5.0 0.00 0.00 0.00 43 1012.9
20260905211010 97 190 2.0 7.0 0.00 0.00 0.00 42 1013.0
20260905210510 97 190 4.0 7.0 0.00 0.00 0.00 42 1013.1
20260905210030 97 190 2.0 8.0 0.00 0.00 0.00 43 1013.1
20260905205512 97 190 3.0 8.0 0.00 0.00 0.00 43 1013.2
20260905205016 97 190 3.0 9.0 0.00 0.00 0.00 43 1013.3
20260905204531 96 190 6.0 9.0 0.00 0.00 0.00 43 1013.4
20260905204013 97 190 5.0 8.0 0.00 0.00 0.00 42 1013.4
20260905203503 97 190 3.0 8.0 0.00 0.00 0.00 42 1013.5
20260905203010 97 190 2.0 8.0 0.00 0.00 0.00 42 1013.5
20260905202506 98 190 2.0 9.0 0.00 0.00 0.00 44 1013.6
20260905202008 97 190 4.0 9.0 0.00 0.00 0.00 43 1013.6
20260905201521 97 190 1.0 4.0 0.00 0.00 0.00 44 1013.6
20260905201009 96 190 2.0 6.0 0.00 0.00 0.00 44 1013.7
20260905200511 97 190 4.0 6.0 0.00 0.00 0.00 44 1013.7
20260905200023 97 190 3.0 5.0 0.00 0.00 0.00 43 1013.8
20260905195515 97 190 1.0 5.0 0.00 0.00 0.00 44 1013.9
20260905195013 96 190 3.0 10.0 0.00 0.00 0.00 44 1013.9
20260905194529 96 190 4.0 10.0 0.00 0.00 0.00 44 1014.0
20260905194012 96 190 6.0 9.0 0.00 0.00 0.00 44 1013.9
20260905193514 97 190 3.0 7.0 0.00 0.00 0.00 44 1014.0
20260905193030 97 190 3.0 7.0 0.00 0.00 0.00 43 1014.0
20260905192518 97 190 3.0 8.0 0.00 0.00 0.00 44 1014.0
20260905192005 97 190 4.0 9.0 0.00 0.00 0.00 44 1014.1
20260905191512 99 190 5.0 9.0 0.00 0.00 0.00 41 1014.0
20260905191006 100 190 2.0 7.0 0.00 0.00 0.00 40 1014.0
20260905190506 100 190 0.0 7.0 0.00 0.00 0.00 40 1014.0
20260905190020 100 190 2.0 7.0 0.00 0.00 0.00 40 1014.1
20260905185511 98 190 2.0 6.0 0.00 0.00 0.00 42 1014.2
20260905185011 98 190 3.0 9.0 0.00 0.00 0.00 42 1014.3
20260905184528 98 190 3.0 9.0 0.00 0.00 0.00 42 1014.4
20260905184004 99 190 3.0 8.0 0.00 0.00 0.00 42 1014.4
20260905183502 98 190 3.0 8.0 0.00 0.00 0.00 42 1014.4
20260905183004 98 190 5.0 8.0 0.00 0.00 0.00 42 1014.4
20260905182501 99 190 3.0 6.0 0.00 0.00 0.00 40 1014.4
20260905182002 98 190 1.0 8.0 0.00 0.00 0.00 41 1014.4
20260905181507 98 190 2.0 8.0 0.00 0.00 0.00 42 1014.4
20260905181004 98 190 2.0 4.0 0.00 0.00 0.00 40 1014.5
20260905180503 97 190 2.0 9.0 0.00 0.00 0.00 41 1014.5
20260905180004 98 190 4.0 9.0 0.00 0.00 0.00 41 1014.6
20260905175502 98 190 2.0 5.0 0.00 0.00 0.00 41 1014.6
20260905175002 98 190 2.0 8.0 0.00 0.00 0.00 42 1014.6
20260905174513 97 190 3.0 8.0 0.00 0.00 0.00 43 1014.7
20260905174003 98 190 2.0 5.0 0.00 0.00 0.00 43 1014.7
20260905173503 97 190 1.0 10.0 0.00 0.00 0.00 44 1014.9
20260905173020 96 190 2.0 10.0 0.00 0.00 0.00 44 1015.0
20260905172503 96 190 3.0 9.0 0.00 0.00 0.00 44 1015.1
20260905172003 97 190 4.0 9.0 0.00 0.00 0.00 42 1015.2
20260905171504 97 190 3.0 6.0 0.00 0.00 0.00 43 1015.3
20260905171002 98 190 2.0 4.0 0.00 0.00 0.00 43 1015.3
20260905170502 97 190 1.0 4.0 0.00 0.00 0.00 44 1015.4
20260905170005 97 190 2.0 7.0 0.00 0.00 0.00 44 1015.4
20260905165503 96 190 2.0 7.0 0.00 0.00 0.00 46 1015.4
20260905165003 97 190 1.0 7.0 0.00 0.00 0.00 45 1015.4
20260905164507 96 190 2.0 7.0 0.00 0.00 0.00 43 1015.6
20260905164002 96 190 1.0 6.0 0.00 0.00 0.00 47 1015.6
20260905163503 96 190 1.0 6.0 0.00 0.00 0.00 49 1015.6
20260905163008 95 190 3.0 6.0 0.00 0.00 0.00 49 1015.6
20260905162503 95 190 2.0 6.0 0.00 0.00 0.00 51 1015.5
20260905162002 95 190 1.0 6.0 0.00 0.00 0.00 51 1015.4
20260905161507 94 190 3.0 7.0 0.00 0.00 0.00 50 1015.4
20260905161004 94 190 4.0 7.0 0.00 0.00 0.00 48 1015.4
20260905160503 94 190 2.0 6.0 0.00 0.00 0.00 49 1015.3
20260905160008 94 190 4.0 6.0 0.00 0.00 0.00 48 1015.3
20260905155501 95 190 1.0 5.0 0.00 0.00 0.00 53 1015.2
20260905155002 94 190 1.0 5.0 0.00 0.00 0.00 52 1015.2
20260905154508 93 190 1.0 5.0 0.00 0.00 0.00 54 1015.2
20260905154427 93 190 2.0 5.0 0.00 0.00 0.00 53 1015.1
20260905154420 92 190 1.0 5.0 0.00 0.00 0.00 57 1015.1